This is the latest recevied weather packets stored in our database for station/object JH0FOG-13. If no packets are shown the sender has not sent any weather packets the latest 10 day(s).
| Time | Temp. | Humidity | Pressure | Rain* | Wind** | Luminosity | Snow |
|---|---|---|---|---|---|---|---|
| 1777416002 | 15° C | 82% | 1013.6 hPa | 0 mm | - | - | - |
| 1777414802 | 14.44° C | 83% | 1013.3 hPa | 0 mm | - | - | - |
| 1777413602 | 14.44° C | 86% | 1013.4 hPa | 0 mm | - | - | - |
| 1777412402 | 13.89° C | 86% | 1013.3 hPa | 0 mm | - | - | - |
| 1777411202 | 14.44° C | 85% | 1012.9 hPa | 0 mm | - | - | - |
| 1777410003 | 13.89° C | 84% | 1013 hPa | 0 mm | - | - | - |
| 1777408803 | 13.89° C | 83% | 1012.6 hPa | 0 mm | - | - | - |
| 1777407603 | 13.89° C | 83% | 1012.6 hPa | 0 mm | - | - | - |
| 1777406403 | 13.89° C | 84% | 1012.2 hPa | 0.25 mm | - | - | - |
| 1777405203 | 13.89° C | 85% | 1012 hPa | 0.25 mm | - | - | - |
| 1777404003 | 13.89° C | 88% | 1012.1 hPa | 0.25 mm | - | - | - |
| 1777402803 | 13.33° C | 90% | 1011.7 hPa | 0 mm | - | - | - |
| 1777401603 | 13.33° C | 92% | 1012 hPa | 0 mm | - | - | - |
| 1777400403 | 13.89° C | 92% | 1012 hPa | 0 mm | - | - | - |
| 1777399203 | 13.89° C | 92% | 1011.8 hPa | 0 mm | - | - | - |
| 1777398003 | 13.89° C | 92% | 1011.8 hPa | 0.25 mm | - | - | - |
| 1777396803 | 13.89° C | 91% | 1011.7 hPa | 0.76 mm | - | - | - |
| 1777395603 | 14.44° C | 90% | 1011.7 hPa | 1.02 mm | - | - | - |
| 1777394403 | 14.44° C | 89% | 1011.6 hPa | 0.76 mm | - | - | - |
| 1777393203 | 15° C | 86% | 1011.7 hPa | 0 mm | - | - | - |
| 1777392003 | 15.56° C | 86% | 1011.9 hPa | 0 mm | - | - | - |
| 1777390803 | 15° C | 86% | 1012 hPa | 0 mm | - | - | - |
| 1777389603 | 15° C | 88% | 1011.9 hPa | 0 mm | - | - | - |
| 1777388403 | 14.44° C | 89% | 1011.7 hPa | 0 mm | - | - | - |
| 1777387202 | 14.44° C | 91% | 1011.9 hPa | 0 mm | - | - | - |
* Rain latest hour (hover to see other rain measurements)
** Current wind speed in m/s (hover to see current wind gust speed)